Regional Weather Roundup
Issued by NWS Huntsville, AL

Home | Current Version | Previous Version | Text Only | Print | Product List | Glossary On
Versions: 1 2 3 4 5 6 7 8 9 10 11 12 13 14 15 16 17 18 19 20 21 22 23 24 25 26 27 28 29 30 31 32 33 34 35 36 37 38 39 40 41 42 43 44 45 46 47 48 49 50
000
ASUS44 KHUN 241110
RWRHUN

WEATHER ROUNDUP FOR THE TENNESSEE VALLEY
NATIONAL WEATHER SERVICE HUNTSVILLE AL
500 AM CST WED JAN 24 2018

ALZ001>004-241200-
NORTHWEST ALABAMA

CITY           SKY/WX    TMP DP  RH WIND       PRES   REMARKS
COURTLAND HCN    N/A     27 N/A N/A CALM        N/A
RUSSELLVILLE     N/A     23 N/A N/A MISG        N/A
SHOALS AIRPORT FAIR      27  24  89 CALM      30.30S
SHOALS TVA RES   N/A     27 N/A N/A MISG        N/A
$$

ALZ005>007-016-241200-
NORTH CENTRAL ALABAMA

CITY           SKY/WX    TMP DP  RH WIND       PRES   REMARKS
CULLMAN AG STN   N/A     32 N/A N/A N5          N/A  WCI  27
DECATUR AP     FAIR      28  25  88 N3        30.29S
HUNTSVILLE AP  FAIR      29  27  92 N3        30.27F
MERIDIANVILLE  FAIR      32  28  86 N3        30.27S
VINEMONT AP    FAIR      26  24  91 CALM      30.28R
$$

ALZ008>010-241200-
NORTHEAST ALABAMA

CITY           SKY/WX    TMP DP  RH WIND       PRES   REMARKS
ALBERTVILLE    FAIR      32  32 100 N8        30.24R WCI  25
FORT PAYNE     FAIR      30  27  86 MISG      30.23S
SCOTTSBORO AP  FAIR      32  28  86 CALM      30.27R
SCOTTSBORO HCN   N/A     28 N/A N/A MISG        N/A
VALLEY HEAD      N/A     27 N/A N/A MISG        N/A
$$

TNZ076-096-097-241200-
SOUTHEASTERN MIDDLE TENNESSEE

CITY           SKY/WX    TMP DP  RH WIND       PRES   REMARKS
TULLAHOMA      CLOUDY    34  27  75 N7        30.25F WCI  28
WINCHESTER     CLOUDY    34  27  75 N8        30.26S WCI  27
$$

...SURROUNDING SITES...

CITY           SKY/WX    TMP DP  RH WIND       PRES   REMARKS
ATLANTA        FAIR      35  28  75 NW9       30.18R WCI  28
ANNISTON       FAIR      28  24  85 CALM      30.26R
BIRMINGHAM     FAIR      29  26  89 CALM      30.30R
CHATTANOOGA    MOCLDY    39  27  62 N13       30.23F WCI  31
CORINTH        FAIR      27  25  93 CALM      30.31S
DALTON         FAIR      34  30  86 N7        30.23S WCI  28
GADSDEN        FAIR      24  24 100 CALM      30.28R
GOLDEN TRNGL   FAIR      27  25  92 S3        30.34R
HALEYVILLE     FAIR      24  24 100 CALM      30.30R
JACKSON TN     FAIR      25  23  92 SW5       30.32S WCI  19
MEMPHIS        FAIR      29  28  96 CALM      30.33S
NASHVILLE      CLOUDY    37  26  64 E3        30.28S
ROME           FAIR      33  27  78 CALM      30.23R
SAVANNAH       CLEAR     25  25 100 CALM      30.31R
SELMER         CLEAR     28  27  93 W5        30.30R WCI  23
TUPELO         FAIR      28  24  85 CALM      30.32S
TUSCALOOSA     FAIR      28  28 100 W3        30.33R
$$

...GULF COAST WEATHER...

CITY           SKY/WX    TMP DP  RH WIND       PRES   REMARKS
GULFPORT       FAIR      36  32  85 N6        30.32R WCI  31
PASCAGOULA     FAIR      40  32  73 N5        30.31R
MOBILE         FAIR      41  32  70 N8        30.31R
GULF SHORES    FAIR      41  33  73 N6        30.29S
PENSACOLA      FAIR      42  33  70 N7        30.28R
DESTIN         FAIR      46  33  60 N8        30.27R
PANAMA CITY    FAIR      42  35  76 N6        30.24R
APPALACHICOLA  FAIR      41  35  79 CALM      30.22R
$$




USA.gov is the U.S. government's official web portal to all federal, state and local government web resources and services.